(255858) = 2002 TA334 = 2006 SF160

Discovered at Kitt Peak on 2006-09-23 by Spacewatch.

Orbit

Orbit type: Main Belt

Note: WebGL enabled browser required.

epoch2023-02-25.0
epoch JD2460000.5
perihelion date2022-10-04.90513
perihelion JD2459857.40513
argument of perihelion (°)9.66666
ascending node (°)66.91283
inclination (°)3.55238
eccentricity0.1654785
perihelion distance (AU)2.0666466
Tisserand w.r.t. Jupiter3.5
ΔV w.r.t. Earth (km/sec)9.1
semimajor axis (AU)2.4764450
mean anomaly (°)36.18969
mean daily motion (°/day)0.25290700
aphelion distance (AU)2.886
period (years)3.9
P-vector [x]0.23239298
P-vector [y]0.88817359
P-vector [z]0.39641036
Q-vector [x]-0.97095040
Q-vector [y]0.18796591
Q-vector [z]0.14806804
absolute magnitude17.57
phase slope0.15
uncertainty0
referenceMPEC 2023-F48
observations used301
oppositions12
arc length (days)7469
first opposition used2002
last opposition used2023
residual rms (arc-secs)0.75
perturbers coarse indicatorM-v
perturbers precise indicator003Ek
first observation date used2002-10-05.0
last observation date used2023-03-18.0
computer nameMPCLINUX
JD of orbit computation2456966.766745
perihelion JD uncertainty (days)2.0011E-04
argument of perihelion uncertainty (°)1.5310E-04
ascending node uncertainty (°)1.3659E-04
inclination uncertainty (°)8.7855E-06
eccentricity uncertainty 1.7660E-07
perihelion distance uncertainty (AU)4.0881E-07
Minimum Orbit Intersection Distances (in AU)
for orbit epoch: 2460000.5, reference: E2023-F48
Mercury1.75954
Venus1.34619
Earth1.08087
Mars0.49682
Jupiter2.3658
Saturn6.97241
Uranus15.8985
Neptune27.4779

Observations

309 total observations over interval: 2002 10 05.34692 – 2023 03 18.244964
These data are available for download (format description).

Date (UT) J2000 RA J2000 Dec Magn Location Ref
2002 10 05.34692 00 54 02.625 +00 05 20.67 20.33 V 645 – Apache Point-Sloan Digital Sky Survey MPS 83060
2002 10 05.346920 00 54 02.623 +00 05 20.68 20.33 V 645 – Apache Point-Sloan Digital Sky Survey MPS 83060
2002 10 05.350392 00 54 02.423 +00 05 19.69 21.31   645 – Apache Point-Sloan Digital Sky Survey MPS 83060
2002 10 11.351480 00 48 26.411 -00 22 05.67 20.45 V 645 – Apache Point-Sloan Digital Sky Survey MPS 83060
2002 10 11.354952 00 48 26.213 -00 22 06.57 21.39   645 – Apache Point-Sloan Digital Sky Survey MPS 83060
2006 09 23.44866 02 20 09.73 +09 21 33.3 21.1 V 691 – Steward Observatory, Kitt Peak-Spacewatch MPS 181391
2006 09 23.46603 02 20 09.34 +09 21 31.5 21.0 V 691 – Steward Observatory, Kitt Peak-Spacewatch MPS 181391
2006 09 23.48340 02 20 08.96 +09 21 29.3 21.1 V 691 – Steward Observatory, Kitt Peak-Spacewatch MPS 181391
2006 09 27.42154 02 18 35.54 +09 13 34.0 20.1 V 691 – Steward Observatory, Kitt Peak-Spacewatch MPS 181391
2006 09 27.43893 02 18 34.92 +09 13 32.1 20.5 V 691 – Steward Observatory, Kitt Peak-Spacewatch MPS 181391
2006 09 27.45633 02 18 34.40 +09 13 29.8 20.5 V 691 – Steward Observatory, Kitt Peak-Spacewatch MPS 181391
2006 10 21.29188 02 00 43.81 +07 59 26.0 19.8 V G96 – Mt. Lemmon Survey MPS 184170
2006 10 21.29703 02 00 43.48 +07 59 24.7 19.8 V G96 – Mt. Lemmon Survey MPS 184170
2006 10 21.30219 02 00 43.20 +07 59 23.7 19.8 V G96 – Mt. Lemmon Survey MPS 184170
2006 10 21.30735 02 00 42.87 +07 59 22.7 19.8 V G96 – Mt. Lemmon Survey MPS 184170
2006 10 22.19863 01 59 52.18 +07 56 15.9 20.0 V 691 – Steward Observatory, Kitt Peak-Spacewatch MPS 184170
2006 10 22.21598 01 59 51.13 +07 56 12.2 19.9 V 691 – Steward Observatory, Kitt Peak-Spacewatch MPS 184170
2006 10 22.23334 01 59 50.12 +07 56 08.7 19.9 V 691 – Steward Observatory, Kitt Peak-Spacewatch MPS 184170
2006 10 31.18833 01 51 15.04 +07 26 53.6 19.9 V G96 – Mt. Lemmon Survey MPS 185560
2006 10 31.19597 01 51 14.61 +07 26 52.4 19.9 V G96 – Mt. Lemmon Survey MPS 185560
2006 10 31.20362 01 51 14.14 +07 26 51.1 19.9 V G96 – Mt. Lemmon Survey MPS 185560
2006 10 31.21129 01 51 13.71 +07 26 49.7 19.6 V G96 – Mt. Lemmon Survey MPS 185560
2006 11 16.21910 01 38 07.65 +06 55 05.0 20.1 V G96 – Mt. Lemmon Survey MPS 187074
2006 11 16.22587 01 38 07.36 +06 55 04.6 20.2 V G96 – Mt. Lemmon Survey MPS 187074
2006 11 16.23256 01 38 07.08 +06 55 04.4 20.4 V G96 – Mt. Lemmon Survey MPS 187074
2006 11 16.23926 01 38 06.79 +06 55 03.8 20.1 V G96 – Mt. Lemmon Survey MPS 187074
2007 01 10.15499 01 49 54.30 +10 29 01.3 21.1 V G96 – Mt. Lemmon Survey MPS 195556
2007 01 10.16071 01 49 54.66 +10 29 04.0 21.0 V G96 – Mt. Lemmon Survey MPS 195556
2007 01 10.16631 01 49 54.98 +10 29 06.6 21.1 V G96 – Mt. Lemmon Survey MPS 195556
2007 01 10.17196 01 49 55.30 +10 29 09.1 21.9 V G96 – Mt. Lemmon Survey MPS 195556
2008 03 04.41700 13 26 39.84 -04 08 34.9 22.5 V G96 – Mt. Lemmon Survey MPS 250457
2008 03 04.42355 13 26 39.58 -04 08 33.1 21.1 V G96 – Mt. Lemmon Survey MPS 250457
2008 03 04.43013 13 26 39.40 -04 08 32.1 21.9 V G96 – Mt. Lemmon Survey MPS 250457
2008 03 04.43669 13 26 39.19 -04 08 31.2 21.5 V G96 – Mt. Lemmon Survey MPS 250457
2008 03 31.33488 13 06 23.47 -02 04 50.1 21.4 V G96 – Mt. Lemmon Survey MPS 246789
2008 03 31.34035 13 06 23.14 -02 04 48.5 21.3 V G96 – Mt. Lemmon Survey MPS 246789
2008 03 31.34584 13 06 22.82 -02 04 46.9 20.4 V G96 – Mt. Lemmon Survey MPS 246789
2008 03 31.35138 13 06 22.53 -02 04 45.5 20.9 V G96 – Mt. Lemmon Survey MPS 246789
2008 04 06.18587 13 00 54.28 -01 35 48.4 20.6 V 691 – Steward Observatory, Kitt Peak-Spacewatch MPS 246789
2008 04 06.20348 13 00 53.23 -01 35 43.2 20.9 V 691 – Steward Observatory, Kitt Peak-Spacewatch MPS 246789
2008 04 06.22109 13 00 52.20 -01 35 37.9 21.1 V 691 – Steward Observatory, Kitt Peak-Spacewatch MPS 246789
2008 04 08.16541 12 59 03.16 -01 26 23.4 21.1 V 691 – Steward Observatory, Kitt Peak-Spacewatch MPS 250457
2008 04 08.18303 12 59 02.14 -01 26 18.1 21.2 V 691 – Steward Observatory, Kitt Peak-Spacewatch MPS 250457
2008 04 08.20066 12 59 01.14 -01 26 13.0 20.8 V 691 – Steward Observatory, Kitt Peak-Spacewatch MPS 250457
2008 04 27.22542 12 43 14.30 -00 16 15.0 21.5 V G96 – Mt. Lemmon Survey MPS 248176
2008 04 27.23271 12 43 14.01 -00 16 13.4 21.5 V G96 – Mt. Lemmon Survey MPS 248177
2008 04 27.23995 12 43 13.69 -00 16 13.1 21.7 V G96 – Mt. Lemmon Survey MPS 248177
2008 04 27.24722 12 43 13.36 -00 16 11.9 21.4 V G96 – Mt. Lemmon Survey MPS 248177
2008 05 04.19457 12 39 02.12 -00 03 03.6 20.6 V G96 – Mt. Lemmon Survey MPS 248998
2008 05 04.19909 12 39 01.94 -00 03 03.4 21.5 V G96 – Mt. Lemmon Survey MPS 248998
2008 05 04.20350 12 39 01.76 -00 03 03.7 21.0 V G96 – Mt. Lemmon Survey MPS 248998
2008 05 04.20796 12 39 01.62 -00 03 02.5 21.4 V G96 – Mt. Lemmon Survey MPS 248998
2010 09 11.47433 03 30 36.18 +15 51 32.8 21.0 V G96 – Mt. Lemmon Survey MPS 348010
2010 09 11.47933 03 30 36.43 +15 51 33.7 20.9 V G96 – Mt. Lemmon Survey MPS 348010
2010 09 11.48436 03 30 36.54 +15 51 34.4 21.0 V G96 – Mt. Lemmon Survey MPS 348010
2010 09 11.48942 03 30 36.75 +15 51 34.8 20.8 V G96 – Mt. Lemmon Survey MPS 348010
2010 11 03.30759 03 22 35.29 +16 09 19.9 19.4 V G96 – Mt. Lemmon Survey MPS 353817
2010 11 03.31503 03 22 34.86 +16 09 18.8 19.7 V G96 – Mt. Lemmon Survey MPS 353817
2010 11 03.32253 03 22 34.42 +16 09 18.1 19.5 V G96 – Mt. Lemmon Survey MPS 353817
2010 11 03.32995 03 22 33.99 +16 09 17.2 19.5 V G96 – Mt. Lemmon Survey MPS 353817
2010 11 05.23391 03 20 46.79 +16 06 28.4 19.9   704 – Lincoln Laboratory ETS, New Mexico MPS 355411
2010 11 05.24634 03 20 46.17 +16 06 26.1 20.0   704 – Lincoln Laboratory ETS, New Mexico MPS 355411
2010 11 05.25878 03 20 45.33 +16 06 25.9 20.2   704 – Lincoln Laboratory ETS, New Mexico MPS 355411
2010 11 05.28369 03 20 43.87 +16 06 19.8 19.9   704 – Lincoln Laboratory ETS, New Mexico MPS 355411
2010 11 09.19346 03 16 54.66 +16 00 17.4 19.7 V 703 – Catalina Sky Survey MPS 355411
2010 11 09.21576 03 16 53.36 +16 00 17.6 19.6 V 703 – Catalina Sky Survey MPS 355411
2010 11 09.22032 03 16 53.00 +16 00 17.7 19.6 V 703 – Catalina Sky Survey MPS 355411
2010 11 09.22494 03 16 52.75 +16 00 15.8 21.2 V 703 – Catalina Sky Survey MPS 355411
2010 11 14.22693 03 11 50.28 +15 52 21.2 19.4 V G96 – Mt. Lemmon Survey MPS 357458
2010 11 14.23391 03 11 49.81 +15 52 20.3 19.4 V G96 – Mt. Lemmon Survey MPS 357458
2010 11 14.24095 03 11 49.38 +15 52 19.8 19.4 V G96 – Mt. Lemmon Survey MPS 357458
2010 11 14.24800 03 11 48.91 +15 52 19.1 19.4 V G96 – Mt. Lemmon Survey MPS 357458
2010 11 27.29605 02 59 19.10 +15 35 12.9 20.0 V 703 – Catalina Sky Survey MPS 381092
2010 11 27.30287 02 59 18.70 +15 35 11.2 20.3 V 703 – Catalina Sky Survey MPS 381092
2010 11 27.30973 02 59 18.34 +15 35 10.2 20.7 V 703 – Catalina Sky Survey MPS 381092
2010 11 27.31664 02 59 17.95 +15 35 10.5 19.7 V 703 – Catalina Sky Survey MPS 381092
2011 01 05.10354 02 49 20.20 +16 28 07.2 20.6 V G96 – Mt. Lemmon Survey MPS 365341
2011 01 05.10863 02 49 20.35 +16 28 08.7 20.7 V G96 – Mt. Lemmon Survey MPS 365341
2011 01 05.11377 02 49 20.42 +16 28 09.6 21.1 V G96 – Mt. Lemmon Survey MPS 365341
2011 01 05.11904 02 49 20.56 +16 28 10.8 20.5 V G96 – Mt. Lemmon Survey MPS 365341
2011 01 09.08160 02 51 14.97 +16 44 16.2 20.8 V G96 – Mt. Lemmon Survey MPS 366874
2011 01 09.08855 02 51 15.12 +16 44 18.3 21.1 V G96 – Mt. Lemmon Survey MPS 366874
2011 01 09.09559 02 51 15.37 +16 44 20.2 20.9 V G96 – Mt. Lemmon Survey MPS 366874
2011 01 09.10262 02 51 15.58 +16 44 22.1 20.7 V G96 – Mt. Lemmon Survey MPS 366874
2011 01 26.13808 03 04 52.75 +18 10 12.7 20.6 V G96 – Mt. Lemmon Survey MPS 368454
2011 01 26.14332 03 04 53.11 +18 10 14.2 21.3 V G96 – Mt. Lemmon Survey MPS 368454
2011 01 26.14856 03 04 53.43 +18 10 16.0 20.8 V G96 – Mt. Lemmon Survey MPS 368454
2011 01 26.15376 03 04 53.65 +18 10 18.0 20.3 V G96 – Mt. Lemmon Survey MPS 368454
2012 04 13.41914 13 41 16.296 -06 25 51.40 21.4 g F51 – Pan-STARRS 1, Haleakala MPS 421730
2012 04 13.43147 13 41 15.582 -06 25 47.81 20.9 r F51 – Pan-STARRS 1, Haleakala MPS 421730
2012 04 13.44246 13 41 14.919 -06 25 44.60 21.2 r F51 – Pan-STARRS 1, Haleakala MPS 421730
